Location: *
(31.2983°S, 151.4094°E)
Time: 19:45:17
(UTC+00:00)

Cosmos 1805 Rocket - Pass Details

Date: 25 August 2019
Orbit: 607 x 629 km, 82.5° (Epoch: 22 September)

Event Time Altitude Azimuth Distance (km) Brightness Sun altitude
Rises 18:55:07 0° 355° (N) 2,902 7.0 -18.6°
Reaches altitude 10° 18:57:20 10° 355° (N) 2,002 6.1 -18.1°
Maximum altitude 19:01:47 89° 278° (W) 637 3.5 -17.1°
Drops below altitude 10° 19:06:17 10° 174° (S) 2,020 6.2 -16.2°
Sets 19:08:32 0° 174° (S) 2,932 7.1 -15.7°
